Year,Month,Day,Hour,Minute,Value (Times are PST for windgust in km/hr)
2012,01,18,00,00,3.20
2012,01,18,00,01,3.20
2012,01,18,00,02,4.80
2012,01,18,00,03,3.20
2012,01,18,00,04,3.20
2012,01,18,00,05,3.20
2012,01,18,00,06,3.20
2012,01,18,00,07,3.20
2012,01,18,00,08,3.20
2012,01,18,00,09,3.20
2012,01,18,00,10,6.40
2012,01,18,00,11,4.80
2012,01,18,00,12,4.80
2012,01,18,00,13,6.40
2012,01,18,00,14,4.80
2012,01,18,00,15,6.40
2012,01,18,00,16,4.80
2012,01,18,00,17,3.20
2012,01,18,00,18,6.40
2012,01,18,00,19,8.10
2012,01,18,00,20,8.10
2012,01,18,00,21,9.60
2012,01,18,00,22,6.40
2012,01,18,00,23,6.40
2012,01,18,00,24,8.10
2012,01,18,00,25,9.60
2012,01,18,00,26,6.40
2012,01,18,00,27,8.10
2012,01,18,00,28,8.10
2012,01,18,00,29,9.60
2012,01,18,00,30,6.40
2012,01,18,00,31,8.10
2012,01,18,00,32,8.10
2012,01,18,00,33,4.80
2012,01,18,00,34,8.10
2012,01,18,00,35,9.60
2012,01,18,00,36,8.10
2012,01,18,00,37,8.10
2012,01,18,00,38,4.80
2012,01,18,00,39,8.10
2012,01,18,00,40,6.40
2012,01,18,00,41,9.60
2012,01,18,00,42,11.30
2012,01,18,00,43,9.60
2012,01,18,00,44,4.80
2012,01,18,00,45,6.40
2012,01,18,00,46,8.10
2012,01,18,00,47,8.10
2012,01,18,00,48,6.40
2012,01,18,00,49,6.40
2012,01,18,00,50,4.80
2012,01,18,00,51,9.60
2012,01,18,00,52,4.80
2012,01,18,00,53,6.40
2012,01,18,00,54,11.30
2012,01,18,00,55,6.40
2012,01,18,00,56,9.60
2012,01,18,00,57,9.60
2012,01,18,00,58,8.10
2012,01,18,00,59,9.60
2012,01,18,01,00,8.10
2012,01,18,01,01,8.10
2012,01,18,01,02,4.80
2012,01,18,01,03,6.40
2012,01,18,01,04,9.60
2012,01,18,01,05,9.60
2012,01,18,01,06,6.40
2012,01,18,01,07,8.10
2012,01,18,01,08,4.80
2012,01,18,01,09,8.10
2012,01,18,01,10,6.40
2012,01,18,01,11,6.40
2012,01,18,01,12,6.40
2012,01,18,01,13,4.80
2012,01,18,01,14,6.40
2012,01,18,01,15,3.20
2012,01,18,01,16,6.40
2012,01,18,01,17,4.80
2012,01,18,01,18,6.40
2012,01,18,01,19,4.80
2012,01,18,01,20,4.80
2012,01,18,01,21,6.40
2012,01,18,01,22,6.40
2012,01,18,01,23,6.40
2012,01,18,01,24,6.40
2012,01,18,01,25,6.40
2012,01,18,01,26,9.60
2012,01,18,01,27,4.80
2012,01,18,01,28,9.60
2012,01,18,01,29,12.90
2012,01,18,01,30,11.30
2012,01,18,01,31,8.10
2012,01,18,01,32,8.10
2012,01,18,01,33,3.20
2012,01,18,01,34,6.40
2012,01,18,01,35,8.10
2012,01,18,01,36,6.40
2012,01,18,01,37,4.80
2012,01,18,01,38,4.80
2012,01,18,01,39,9.60
2012,01,18,01,40,8.10
2012,01,18,01,41,9.60
2012,01,18,01,42,9.60
2012,01,18,01,43,11.30
2012,01,18,01,44,11.30
2012,01,18,01,45,11.30
2012,01,18,01,46,9.60
2012,01,18,01,47,8.10
2012,01,18,01,48,6.40
2012,01,18,01,49,8.10
2012,01,18,01,50,8.10
2012,01,18,01,51,4.80
2012,01,18,01,52,8.10
2012,01,18,01,53,6.40
2012,01,18,01,54,8.10
2012,01,18,01,55,8.10
2012,01,18,01,56,6.40
2012,01,18,01,57,8.10
2012,01,18,01,58,6.40
2012,01,18,01,59,6.40
2012,01,18,02,00,6.40
2012,01,18,02,01,4.80
2012,01,18,02,02,4.80
2012,01,18,02,03,4.80
2012,01,18,02,04,4.80
2012,01,18,02,05,1.60
2012,01,18,02,06,3.20
2012,01,18,02,07,4.80
2012,01,18,02,08,4.80
2012,01,18,02,09,8.10
2012,01,18,02,10,8.10
2012,01,18,02,11,9.60
2012,01,18,02,12,8.10
2012,01,18,02,13,4.80
2012,01,18,02,14,6.40
2012,01,18,02,15,8.10
2012,01,18,02,16,8.10
2012,01,18,02,17,6.40
2012,01,18,02,18,8.10
2012,01,18,02,19,6.40
2012,01,18,02,20,6.40
2012,01,18,02,21,6.40
2012,01,18,02,22,9.60
2012,01,18,02,23,8.10
2012,01,18,02,24,6.40
2012,01,18,02,25,3.20
2012,01,18,02,26,4.80
2012,01,18,02,27,6.40
2012,01,18,02,28,6.40
2012,01,18,02,29,6.40
2012,01,18,02,30,8.10
2012,01,18,02,31,8.10
2012,01,18,02,32,11.30
2012,01,18,02,33,6.40
2012,01,18,02,34,9.60
2012,01,18,02,35,11.30
2012,01,18,02,36,12.90
2012,01,18,02,37,6.40
2012,01,18,02,38,6.40
2012,01,18,02,39,8.10
2012,01,18,02,40,9.60
2012,01,18,02,41,8.10
2012,01,18,02,42,6.40
2012,01,18,02,43,9.60
2012,01,18,02,44,8.10
2012,01,18,02,45,8.10
2012,01,18,02,46,6.40
2012,01,18,02,47,6.40
2012,01,18,02,48,6.40
2012,01,18,02,49,6.40
2012,01,18,02,50,8.10
2012,01,18,02,51,8.10
2012,01,18,02,52,6.40
2012,01,18,02,53,8.10
2012,01,18,02,54,8.10
2012,01,18,02,55,8.10
2012,01,18,02,56,8.10
2012,01,18,02,57,4.80
2012,01,18,02,58,8.10
2012,01,18,02,59,8.10
2012,01,18,03,00,11.30
2012,01,18,03,01,11.30
2012,01,18,03,02,11.30
2012,01,18,03,03,9.60
2012,01,18,03,04,6.40
2012,01,18,03,05,6.40
2012,01,18,03,06,11.30
2012,01,18,03,07,8.10
2012,01,18,03,08,9.60
2012,01,18,03,09,8.10
2012,01,18,03,10,6.40
2012,01,18,03,11,9.60
2012,01,18,03,12,8.10
2012,01,18,03,13,4.80
2012,01,18,03,14,8.10
2012,01,18,03,15,8.10
2012,01,18,03,16,11.30
2012,01,18,03,17,8.10
2012,01,18,03,18,6.40
2012,01,18,03,19,4.80
2012,01,18,03,20,4.80
2012,01,18,03,21,4.80
2012,01,18,03,22,4.80
2012,01,18,03,23,4.80
2012,01,18,03,24,6.40
2012,01,18,03,25,3.20
2012,01,18,03,26,3.20
2012,01,18,03,27,1.60
2012,01,18,03,28,1.60
2012,01,18,03,34,4.80
2012,01,18,03,35,4.80
2012,01,18,03,36,3.20
2012,01,18,03,37,9.60
2012,01,18,03,38,3.20
2012,01,18,03,39,8.10
2012,01,18,03,40,9.60
2012,01,18,03,41,9.60
2012,01,18,03,42,8.10
2012,01,18,03,44,4.80
2012,01,18,03,45,1.60
2012,01,18,03,46,4.80
2012,01,18,03,47,3.20
2012,01,18,03,48,4.80
2012,01,18,03,49,8.10
2012,01,18,03,50,6.40
2012,01,18,03,51,4.80
2012,01,18,03,52,9.60
2012,01,18,03,53,8.10
2012,01,18,03,54,11.30
2012,01,18,03,55,11.30
2012,01,18,03,56,11.30
2012,01,18,03,57,17.70
2012,01,18,03,58,14.50
2012,01,18,03,59,8.10
2012,01,18,04,00,6.40
2012,01,18,04,01,8.10
2012,01,18,04,02,6.40
2012,01,18,04,03,4.80
2012,01,18,04,04,8.10
2012,01,18,04,05,11.30
2012,01,18,04,06,11.30
2012,01,18,04,07,14.50
2012,01,18,04,08,8.10
2012,01,18,04,09,8.10
2012,01,18,04,10,9.60
2012,01,18,04,11,6.40
2012,01,18,04,12,4.80
2012,01,18,04,13,6.40
2012,01,18,04,14,9.60
2012,01,18,04,15,4.80
2012,01,18,04,16,6.40
2012,01,18,04,17,8.10
2012,01,18,04,18,9.60
2012,01,18,04,19,14.50
2012,01,18,04,20,14.50
2012,01,18,04,21,8.10
2012,01,18,04,22,8.10
2012,01,18,04,23,8.10
2012,01,18,04,24,16.10
2012,01,18,04,25,17.70
2012,01,18,04,26,9.60
2012,01,18,04,27,14.50
2012,01,18,04,28,11.30
2012,01,18,04,29,19.30
2012,01,18,04,30,14.50
2012,01,18,04,31,6.40
2012,01,18,04,32,11.30
2012,01,18,04,33,6.40
2012,01,18,04,34,11.30
2012,01,18,04,35,9.60
2012,01,18,04,36,6.40
2012,01,18,04,37,6.40
2012,01,18,04,38,6.40
2012,01,18,04,39,3.20
2012,01,18,04,40,6.40
2012,01,18,04,41,4.80
2012,01,18,04,42,4.80
2012,01,18,04,43,11.30
2012,01,18,04,44,6.40
2012,01,18,04,45,4.80
2012,01,18,04,46,8.10
2012,01,18,04,47,8.10
2012,01,18,04,48,8.10
2012,01,18,04,49,11.30
2012,01,18,04,50,6.40
2012,01,18,04,51,11.30
2012,01,18,04,52,9.60
2012,01,18,04,53,11.30
2012,01,18,04,54,14.50
2012,01,18,04,55,14.50
2012,01,18,04,56,8.10
2012,01,18,04,57,8.10
2012,01,18,04,58,19.30
2012,01,18,04,59,17.70
2012,01,18,05,00,17.70
2012,01,18,05,01,17.70
2012,01,18,05,02,24.20
2012,01,18,05,03,6.40
2012,01,18,05,04,19.30
2012,01,18,05,05,19.30
2012,01,18,05,06,19.30
2012,01,18,05,07,11.30
2012,01,18,05,08,9.60
2012,01,18,05,09,9.60
2012,01,18,05,10,9.60
2012,01,18,05,11,19.30
2012,01,18,05,12,19.30
2012,01,18,05,13,22.50
2012,01,18,05,14,22.50
2012,01,18,05,15,11.30
2012,01,18,05,16,9.60
2012,01,18,05,17,17.70
2012,01,18,05,18,11.30
2012,01,18,05,19,22.50
2012,01,18,05,20,16.10
2012,01,18,05,21,9.60
2012,01,18,05,22,17.70
2012,01,18,05,23,22.50
2012,01,18,05,24,16.10
2012,01,18,05,25,11.30
2012,01,18,05,26,14.50
2012,01,18,05,27,16.10
2012,01,18,05,28,20.90
2012,01,18,05,29,11.30
2012,01,18,05,30,17.70
2012,01,18,05,31,14.50
2012,01,18,05,32,11.30
2012,01,18,05,33,19.30
2012,01,18,05,34,20.90
2012,01,18,05,35,20.90
2012,01,18,05,36,11.30
2012,01,18,05,37,20.90
2012,01,18,05,38,17.70
2012,01,18,05,39,11.30
2012,01,18,05,40,20.90
2012,01,18,05,41,12.90
2012,01,18,05,42,19.30
2012,01,18,05,43,17.70
2012,01,18,05,44,24.20
2012,01,18,05,45,19.30
2012,01,18,05,46,6.40
2012,01,18,05,47,17.70
2012,01,18,05,48,8.10
2012,01,18,05,49,16.10
2012,01,18,05,50,20.90
2012,01,18,05,51,17.70
2012,01,18,05,52,17.70
2012,01,18,05,53,20.90
2012,01,18,05,54,19.30
2012,01,18,05,55,16.10
2012,01,18,05,56,19.30
2012,01,18,05,57,20.90
2012,01,18,05,58,16.10
2012,01,18,05,59,11.30
2012,01,18,06,00,17.70
2012,01,18,06,01,11.30
2012,01,18,06,02,20.90
2012,01,18,06,03,24.20
2012,01,18,06,04,22.50
2012,01,18,06,05,19.30
2012,01,18,06,06,17.70
2012,01,18,06,07,9.60
2012,01,18,06,08,20.90
2012,01,18,06,09,20.90
2012,01,18,06,10,27.40
2012,01,18,06,11,30.60
2012,01,18,06,12,19.30
2012,01,18,06,13,20.90
2012,01,18,06,14,27.40
2012,01,18,06,15,25.70
2012,01,18,06,16,25.70
2012,01,18,06,17,25.70
2012,01,18,06,18,25.70
2012,01,18,06,19,27.40
2012,01,18,06,20,17.70
2012,01,18,06,21,29.00
2012,01,18,06,22,25.70
2012,01,18,06,23,22.50
2012,01,18,06,24,12.90
2012,01,18,06,25,19.30
2012,01,18,06,26,19.30
2012,01,18,06,27,22.50
2012,01,18,06,28,11.30
2012,01,18,06,29,20.90
2012,01,18,06,30,22.50
2012,01,18,06,31,22.50
2012,01,18,06,32,24.20
2012,01,18,06,33,19.30
2012,01,18,06,34,22.50
2012,01,18,06,35,19.30
2012,01,18,06,36,11.30
2012,01,18,06,37,22.50
2012,01,18,06,38,25.70
2012,01,18,06,39,14.50
2012,01,18,06,40,11.30
2012,01,18,06,41,19.30
2012,01,18,06,42,20.90
2012,01,18,06,43,12.90
2012,01,18,06,44,16.10
2012,01,18,06,45,9.60
2012,01,18,06,46,8.10
2012,01,18,06,47,16.10
2012,01,18,06,48,8.10
2012,01,18,06,49,17.70
2012,01,18,06,50,24.20
2012,01,18,06,51,11.30
2012,01,18,06,52,22.50
2012,01,18,06,53,17.70
2012,01,18,06,54,16.10
2012,01,18,06,55,17.70
2012,01,18,06,56,22.50
2012,01,18,06,57,22.50
2012,01,18,06,58,19.30
2012,01,18,06,59,16.10
2012,01,18,07,00,24.20
2012,01,18,07,01,17.70
2012,01,18,07,02,19.30
2012,01,18,07,03,27.40
2012,01,18,07,04,24.20
2012,01,18,07,05,19.30
2012,01,18,07,06,20.90
2012,01,18,07,07,20.90
2012,01,18,07,08,14.50
2012,01,18,07,09,11.30
2012,01,18,07,10,17.70
2012,01,18,07,11,14.50
2012,01,18,07,12,25.70
2012,01,18,07,13,17.70
2012,01,18,07,14,16.10
2012,01,18,07,15,16.10
2012,01,18,07,16,17.70
2012,01,18,07,17,20.90
2012,01,18,07,18,9.60
2012,01,18,07,19,14.50
2012,01,18,07,20,19.30
2012,01,18,07,21,14.50
2012,01,18,07,22,17.70
2012,01,18,07,23,24.20
2012,01,18,07,24,16.10
2012,01,18,07,25,17.70
2012,01,18,07,26,12.90
2012,01,18,07,27,16.10
2012,01,18,07,28,19.30
2012,01,18,07,29,17.70
2012,01,18,07,30,17.70
2012,01,18,07,31,24.20
2012,01,18,07,32,20.90
2012,01,18,07,33,17.70
2012,01,18,07,34,17.70
2012,01,18,07,35,20.90
2012,01,18,07,36,20.90
2012,01,18,07,37,14.50
2012,01,18,07,38,20.90
2012,01,18,07,39,19.30
2012,01,18,07,40,17.70
2012,01,18,07,41,17.70
2012,01,18,07,42,16.10
2012,01,18,07,43,11.30
2012,01,18,07,44,19.30
2012,01,18,07,45,19.30
2012,01,18,07,46,24.20
2012,01,18,07,47,17.70
2012,01,18,07,48,17.70
2012,01,18,07,49,14.50
2012,01,18,07,50,11.30
2012,01,18,07,51,11.30
2012,01,18,07,52,19.30
2012,01,18,07,53,19.30
2012,01,18,07,54,9.60
2012,01,18,07,55,16.10
2012,01,18,07,56,16.10
2012,01,18,07,57,12.90
2012,01,18,07,58,25.70
2012,01,18,07,59,17.70
2012,01,18,08,00,19.30
2012,01,18,08,01,22.50
2012,01,18,08,02,17.70
2012,01,18,08,03,20.90
2012,01,18,08,04,19.30
2012,01,18,08,05,25.70
2012,01,18,08,06,25.70
2012,01,18,08,07,29.00
2012,01,18,08,08,17.70
2012,01,18,08,09,29.00
2012,01,18,08,10,30.60
2012,01,18,08,11,29.00
2012,01,18,08,12,24.20
2012,01,18,08,13,25.70
2012,01,18,08,14,27.40
2012,01,18,08,15,25.70
2012,01,18,08,16,20.90
2012,01,18,08,17,17.70
2012,01,18,08,18,17.70
2012,01,18,08,19,22.50
2012,01,18,08,20,24.20
2012,01,18,08,21,22.50
2012,01,18,08,22,25.70
2012,01,18,08,23,20.90
2012,01,18,08,24,14.50
2012,01,18,08,25,19.30
2012,01,18,08,26,20.90
2012,01,18,08,27,9.60
2012,01,18,08,28,16.10
2012,01,18,08,29,17.70
2012,01,18,08,30,24.20
2012,01,18,08,31,16.10
2012,01,18,08,32,27.40
2012,01,18,08,33,37.00
2012,01,18,08,34,37.00
2012,01,18,08,35,35.40
2012,01,18,08,36,22.50
2012,01,18,08,37,17.70
2012,01,18,08,38,20.90
2012,01,18,08,39,19.30
2012,01,18,08,40,9.60
2012,01,18,08,41,22.50
2012,01,18,08,42,32.20
2012,01,18,08,43,19.30
2012,01,18,08,44,29.00
2012,01,18,08,45,29.00
2012,01,18,08,46,37.00
2012,01,18,08,47,29.00
2012,01,18,08,48,25.70
2012,01,18,08,49,33.80
2012,01,18,08,50,22.50
2012,01,18,08,51,24.20
2012,01,18,08,52,29.00
2012,01,18,08,53,33.80
2012,01,18,08,54,29.00
2012,01,18,08,55,30.60
2012,01,18,08,56,32.20
2012,01,18,08,57,27.40
2012,01,18,08,58,20.90
2012,01,18,08,59,24.20
2012,01,18,09,00,22.50
2012,01,18,09,01,30.60
2012,01,18,09,02,20.90
2012,01,18,09,03,25.70
2012,01,18,09,04,25.70
2012,01,18,09,05,35.40
2012,01,18,09,06,30.60
2012,01,18,09,07,19.30
2012,01,18,09,08,19.30
2012,01,18,09,09,25.70
2012,01,18,09,10,20.90
2012,01,18,09,11,20.90
2012,01,18,09,12,17.70
2012,01,18,09,13,22.50
2012,01,18,09,14,24.20
2012,01,18,09,15,29.00
2012,01,18,09,16,25.70
2012,01,18,09,17,29.00
2012,01,18,09,18,25.70
2012,01,18,09,19,32.20
2012,01,18,09,20,37.00
2012,01,18,09,21,38.60
2012,01,18,09,22,27.40
2012,01,18,09,23,37.00
2012,01,18,09,24,20.90
2012,01,18,09,25,29.00
2012,01,18,09,26,32.20
2012,01,18,09,27,32.20
2012,01,18,09,28,33.80
2012,01,18,09,29,35.40
2012,01,18,09,30,30.60
2012,01,18,09,31,32.20
2012,01,18,09,32,32.20
2012,01,18,09,33,22.50
2012,01,18,09,34,35.40
2012,01,18,09,35,29.00
2012,01,18,09,36,24.20
2012,01,18,09,37,27.40
2012,01,18,09,38,32.20
2012,01,18,09,39,30.60
2012,01,18,09,40,30.60
2012,01,18,09,41,30.60
2012,01,18,09,42,33.80
2012,01,18,09,43,24.20
2012,01,18,09,44,29.00
2012,01,18,09,45,25.70
2012,01,18,09,46,29.00
2012,01,18,09,47,29.00
2012,01,18,09,48,33.80
2012,01,18,09,49,30.60
2012,01,18,09,50,20.90
2012,01,18,09,51,24.20
2012,01,18,09,52,20.90
2012,01,18,09,53,25.70
2012,01,18,09,54,33.80
2012,01,18,09,55,35.40
2012,01,18,09,56,30.60
2012,01,18,09,57,22.50
2012,01,18,09,58,40.20
2012,01,18,09,59,35.40
2012,01,18,10,00,32.20
2012,01,18,10,01,41.80
2012,01,18,10,02,35.40
2012,01,18,10,03,37.00
2012,01,18,10,04,25.70
2012,01,18,10,05,33.80
2012,01,18,10,06,17.70
2012,01,18,10,07,33.80
2012,01,18,10,08,41.80
2012,01,18,10,09,25.70
2012,01,18,10,10,38.60
2012,01,18,10,11,29.00
2012,01,18,10,12,32.20
2012,01,18,10,13,32.20
2012,01,18,10,14,33.80
2012,01,18,10,15,29.00
2012,01,18,10,16,25.70
2012,01,18,10,17,20.90
2012,01,18,10,18,22.50
2012,01,18,10,19,35.40
2012,01,18,10,20,20.90
2012,01,18,10,21,32.20
2012,01,18,10,22,32.20
2012,01,18,10,23,27.40
2012,01,18,10,24,33.80
2012,01,18,10,25,25.70
2012,01,18,10,26,37.00
2012,01,18,10,27,35.40
2012,01,18,10,28,25.70
2012,01,18,10,29,27.40
2012,01,18,10,30,30.60
2012,01,18,10,31,32.20
2012,01,18,10,32,22.50
2012,01,18,10,33,35.40
2012,01,18,10,34,40.20
2012,01,18,10,35,25.70
2012,01,18,10,36,32.20
2012,01,18,10,37,32.20
2012,01,18,10,38,30.60
2012,01,18,10,39,38.60
2012,01,18,10,40,29.00
2012,01,18,10,41,29.00
2012,01,18,10,42,32.20
2012,01,18,10,43,45.10
2012,01,18,10,44,35.40
2012,01,18,10,45,30.60
2012,01,18,10,46,33.80
2012,01,18,10,47,38.60
2012,01,18,10,48,29.00
2012,01,18,10,49,25.70
2012,01,18,10,50,24.20
2012,01,18,10,51,27.40
2012,01,18,10,52,32.20
2012,01,18,10,53,37.00
2012,01,18,10,54,29.00
2012,01,18,10,55,35.40
2012,01,18,10,56,32.20
2012,01,18,10,57,29.00
2012,01,18,10,58,25.70
2012,01,18,10,59,25.70
2012,01,18,11,00,24.20
2012,01,18,11,01,37.00
2012,01,18,11,02,24.20
2012,01,18,11,03,27.40
2012,01,18,11,04,19.30
2012,01,18,11,05,25.70
2012,01,18,11,06,22.50
2012,01,18,11,07,27.40
2012,01,18,11,08,30.60
2012,01,18,11,09,20.90
2012,01,18,11,10,29.00
2012,01,18,11,11,32.20
2012,01,18,11,12,27.40
2012,01,18,11,13,22.50
2012,01,18,11,14,33.80
2012,01,18,11,15,33.80
2012,01,18,11,16,27.40
2012,01,18,11,17,29.00
2012,01,18,11,18,32.20
2012,01,18,11,19,33.80
2012,01,18,11,20,32.20
2012,01,18,11,21,38.60
2012,01,18,11,22,32.20
2012,01,18,11,23,35.40
2012,01,18,11,24,30.60
2012,01,18,11,25,30.60
2012,01,18,11,26,25.70
2012,01,18,11,27,48.30
2012,01,18,11,28,38.60
2012,01,18,11,29,33.80
2012,01,18,11,30,29.00
2012,01,18,11,31,33.80
2012,01,18,11,32,35.40
2012,01,18,11,33,29.00
2012,01,18,11,34,33.80
2012,01,18,11,35,27.40
2012,01,18,11,36,40.20
2012,01,18,11,37,35.40
2012,01,18,11,38,33.80
2012,01,18,11,39,24.20
2012,01,18,11,40,30.60
2012,01,18,11,41,32.20
2012,01,18,11,42,29.00
2012,01,18,11,43,33.80
2012,01,18,11,44,17.70
2012,01,18,11,45,14.50
2012,01,18,11,46,32.20
2012,01,18,11,47,29.00
2012,01,18,11,48,33.80
2012,01,18,11,49,25.70
2012,01,18,11,50,37.00
2012,01,18,11,51,33.80
2012,01,18,11,52,22.50
2012,01,18,11,53,19.30
2012,01,18,11,54,20.90
2012,01,18,11,55,35.40
2012,01,18,11,56,22.50
2012,01,18,11,57,25.70
2012,01,18,11,58,25.70
2012,01,18,11,59,29.00
2012,01,18,12,00,24.20
2012,01,18,12,01,24.20
2012,01,18,12,02,32.20
2012,01,18,12,03,29.00
2012,01,18,12,04,19.30
2012,01,18,12,05,25.70
2012,01,18,12,06,20.90
2012,01,18,12,07,24.20
2012,01,18,12,08,22.50
2012,01,18,12,09,17.70
2012,01,18,12,10,22.50
2012,01,18,12,11,25.70
2012,01,18,12,12,24.20
2012,01,18,12,13,22.50
2012,01,18,12,14,20.90
2012,01,18,12,15,27.40
2012,01,18,12,16,25.70
2012,01,18,12,17,27.40
2012,01,18,12,18,22.50
2012,01,18,12,19,17.70
2012,01,18,12,20,27.40
2012,01,18,12,21,19.30
2012,01,18,12,22,20.90
2012,01,18,12,23,20.90
2012,01,18,12,24,25.70
2012,01,18,12,25,17.70
2012,01,18,12,26,32.20
2012,01,18,12,27,22.50
2012,01,18,12,28,24.20
2012,01,18,12,29,19.30
2012,01,18,12,30,22.50
2012,01,18,12,31,12.90
2012,01,18,12,32,37.00
2012,01,18,12,33,22.50
2012,01,18,12,34,22.50
2012,01,18,12,35,37.00
2012,01,18,12,36,40.20
2012,01,18,12,37,33.80
2012,01,18,12,38,27.40
2012,01,18,12,39,29.00
2012,01,18,12,40,33.80
2012,01,18,12,41,24.20
2012,01,18,12,42,24.20
2012,01,18,12,43,20.90
2012,01,18,12,44,25.70
2012,01,18,12,45,32.20
2012,01,18,12,46,25.70
2012,01,18,12,47,25.70
2012,01,18,12,48,40.20
2012,01,18,12,49,33.80
2012,01,18,12,50,29.00
2012,01,18,12,51,35.40
2012,01,18,12,52,32.20
2012,01,18,12,53,27.40
2012,01,18,12,54,33.80
2012,01,18,12,55,29.00
2012,01,18,12,56,32.20
2012,01,18,12,57,29.00
2012,01,18,12,58,30.60
2012,01,18,12,59,33.80
2012,01,18,13,00,32.20
2012,01,18,13,01,25.70
2012,01,18,13,02,32.20
2012,01,18,13,03,38.60
2012,01,18,13,04,25.70
2012,01,18,13,05,33.80
2012,01,18,13,06,27.40
2012,01,18,13,07,20.90
2012,01,18,13,08,29.00
2012,01,18,13,09,30.60
2012,01,18,13,10,38.60
2012,01,18,13,11,38.60
2012,01,18,13,12,35.40
2012,01,18,13,13,35.40
2012,01,18,13,14,30.60
2012,01,18,13,15,30.60
2012,01,18,13,16,32.20
2012,01,18,13,17,37.00
2012,01,18,13,18,27.40
2012,01,18,13,19,32.20
2012,01,18,13,20,29.00
2012,01,18,13,21,30.60
2012,01,18,13,22,25.70
2012,01,18,13,23,33.80
2012,01,18,13,24,27.40
2012,01,18,13,25,29.00
2012,01,18,13,26,32.20
2012,01,18,13,27,25.70
2012,01,18,13,28,24.20
2012,01,18,13,29,30.60
2012,01,18,13,30,32.20
2012,01,18,13,31,30.60
2012,01,18,13,32,30.60
2012,01,18,13,33,22.50
2012,01,18,13,34,35.40
2012,01,18,13,35,35.40
2012,01,18,13,36,24.20
2012,01,18,13,37,27.40
2012,01,18,13,38,27.40
2012,01,18,13,39,27.40
2012,01,18,13,40,27.40
2012,01,18,13,41,27.40
2012,01,18,13,42,25.70
2012,01,18,13,43,29.00
2012,01,18,13,44,35.40
2012,01,18,13,45,33.80
2012,01,18,13,46,24.20
2012,01,18,13,47,24.20
2012,01,18,13,48,29.00
2012,01,18,13,49,22.50
2012,01,18,13,50,27.40
2012,01,18,13,51,24.20
2012,01,18,13,52,16.10
2012,01,18,13,53,19.30
2012,01,18,13,54,19.30
2012,01,18,13,55,22.50
2012,01,18,13,56,20.90
2012,01,18,13,57,20.90
2012,01,18,13,58,17.70
2012,01,18,13,59,24.20
2012,01,18,14,00,27.40
2012,01,18,14,01,19.30
2012,01,18,14,02,30.60
2012,01,18,14,03,27.40
2012,01,18,14,04,24.20
2012,01,18,14,05,29.00
2012,01,18,14,06,30.60
2012,01,18,14,07,27.40
2012,01,18,14,08,20.90
2012,01,18,14,09,29.00
2012,01,18,14,10,29.00
2012,01,18,14,11,27.40
2012,01,18,14,12,30.60
2012,01,18,14,13,25.70
2012,01,18,14,14,25.70
2012,01,18,14,15,30.60
2012,01,18,14,16,22.50
2012,01,18,14,17,35.40
2012,01,18,14,18,30.60
2012,01,18,14,19,35.40
2012,01,18,14,20,29.00
2012,01,18,14,21,29.00
2012,01,18,14,22,24.20
2012,01,18,14,23,33.80
2012,01,18,14,24,33.80
2012,01,18,14,25,32.20
2012,01,18,14,26,29.00
2012,01,18,14,27,32.20
2012,01,18,14,28,30.60
2012,01,18,14,29,27.40
2012,01,18,14,30,29.00
2012,01,18,14,31,35.40
2012,01,18,14,32,20.90
2012,01,18,14,33,20.90
2012,01,18,14,34,22.50
2012,01,18,14,35,30.60
2012,01,18,14,36,22.50
2012,01,18,14,37,17.70
2012,01,18,14,38,16.10
2012,01,18,14,39,30.60
2012,01,18,14,40,35.40
2012,01,18,14,41,33.80
2012,01,18,14,42,25.70
2012,01,18,14,43,17.70
2012,01,18,14,44,19.30
2012,01,18,14,45,17.70
2012,01,18,14,46,25.70
2012,01,18,14,47,25.70
2012,01,18,14,48,30.60
2012,01,18,14,49,27.40
2012,01,18,14,50,17.70
2012,01,18,14,51,14.50
2012,01,18,14,52,24.20
2012,01,18,14,53,33.80
2012,01,18,14,54,32.20
2012,01,18,14,55,27.40
2012,01,18,14,56,30.60
2012,01,18,14,57,25.70
2012,01,18,14,58,19.30
2012,01,18,14,59,29.00
2012,01,18,15,00,25.70
2012,01,18,15,01,27.40
2012,01,18,15,02,22.50
2012,01,18,15,03,24.20
2012,01,18,15,04,24.20
2012,01,18,15,05,25.70
2012,01,18,15,06,20.90
2012,01,18,15,07,29.00
2012,01,18,15,08,25.70
2012,01,18,15,09,24.20
2012,01,18,15,10,27.40
2012,01,18,15,11,14.50
2012,01,18,15,12,17.70
2012,01,18,15,13,30.60
2012,01,18,15,14,25.70
2012,01,18,15,15,22.50
2012,01,18,15,16,27.40
2012,01,18,15,17,20.90
2012,01,18,15,18,22.50
2012,01,18,15,19,17.70
2012,01,18,15,20,27.40
2012,01,18,15,21,24.20
2012,01,18,15,22,27.40
2012,01,18,15,23,33.80
2012,01,18,15,24,22.50
2012,01,18,15,25,25.70
2012,01,18,15,26,29.00
2012,01,18,15,27,24.20
2012,01,18,15,28,25.70
2012,01,18,15,29,27.40
2012,01,18,15,30,25.70
2012,01,18,15,31,22.50
2012,01,18,15,32,20.90
2012,01,18,15,33,17.70
2012,01,18,15,34,27.40
2012,01,18,15,35,25.70
2012,01,18,15,36,29.00
2012,01,18,15,37,32.20
2012,01,18,15,38,30.60
2012,01,18,15,39,24.20
2012,01,18,15,40,22.50
2012,01,18,15,41,20.90
2012,01,18,15,42,22.50
2012,01,18,15,43,30.60
2012,01,18,15,44,30.60
2012,01,18,15,45,24.20
2012,01,18,15,46,20.90
2012,01,18,15,47,29.00
2012,01,18,15,48,29.00
2012,01,18,15,49,24.20
2012,01,18,15,50,25.70
2012,01,18,15,51,20.90
2012,01,18,15,52,20.90
2012,01,18,15,53,27.40
2012,01,18,15,54,19.30
2012,01,18,15,55,25.70
2012,01,18,15,56,30.60
2012,01,18,15,57,27.40
2012,01,18,15,58,22.50
2012,01,18,15,59,22.50
2012,01,18,16,00,30.60
2012,01,18,16,01,32.20
2012,01,18,16,02,25.70
2012,01,18,16,03,22.50
2012,01,18,16,04,24.20
2012,01,18,16,05,24.20
2012,01,18,16,06,27.40
2012,01,18,16,07,25.70
2012,01,18,16,08,25.70
2012,01,18,16,09,29.00
2012,01,18,16,10,19.30
2012,01,18,16,11,22.50
2012,01,18,16,12,22.50
2012,01,18,16,13,24.20
2012,01,18,16,14,24.20
2012,01,18,16,15,25.70
2012,01,18,16,16,20.90
2012,01,18,16,17,25.70
2012,01,18,16,18,22.50
2012,01,18,16,19,24.20
2012,01,18,16,20,29.00
2012,01,18,16,21,20.90
2012,01,18,16,22,17.70
2012,01,18,16,23,27.40
2012,01,18,16,24,16.10
2012,01,18,16,25,30.60
2012,01,18,16,26,27.40
2012,01,18,16,27,20.90
2012,01,18,16,28,25.70
2012,01,18,16,29,29.00
2012,01,18,16,30,24.20
2012,01,18,16,31,17.70
2012,01,18,16,32,17.70
2012,01,18,16,33,20.90
2012,01,18,16,34,24.20
2012,01,18,16,35,19.30
2012,01,18,16,36,24.20
2012,01,18,16,37,22.50
2012,01,18,16,38,24.20
2012,01,18,16,39,24.20
2012,01,18,16,40,22.50
2012,01,18,16,41,16.10
2012,01,18,16,42,22.50
2012,01,18,16,43,29.00
2012,01,18,16,44,20.90
2012,01,18,16,45,29.00
2012,01,18,16,46,27.40
2012,01,18,16,47,25.70
2012,01,18,16,48,20.90
2012,01,18,16,49,22.50
2012,01,18,16,50,19.30
2012,01,18,16,51,19.30
2012,01,18,16,52,12.90
2012,01,18,16,53,22.50
2012,01,18,16,54,19.30
2012,01,18,16,55,11.30
2012,01,18,16,56,20.90
2012,01,18,16,57,22.50
2012,01,18,16,58,25.70
2012,01,18,16,59,20.90
2012,01,18,17,00,16.10
2012,01,18,17,01,17.70
2012,01,18,17,02,19.30
2012,01,18,17,03,30.60
2012,01,18,17,04,27.40
2012,01,18,17,05,19.30
2012,01,18,17,06,20.90
2012,01,18,17,07,20.90
2012,01,18,17,08,17.70
2012,01,18,17,09,24.20
2012,01,18,17,10,25.70
2012,01,18,17,11,20.90
2012,01,18,17,12,20.90
2012,01,18,17,13,14.50
2012,01,18,17,14,35.40
2012,01,18,17,15,24.20
2012,01,18,17,16,16.10
2012,01,18,17,17,22.50
2012,01,18,17,18,19.30
2012,01,18,17,19,20.90
2012,01,18,17,20,14.50
2012,01,18,17,21,24.20
2012,01,18,17,22,25.70
2012,01,18,17,23,24.20
2012,01,18,17,24,24.20
2012,01,18,17,25,19.30
2012,01,18,17,26,24.20
2012,01,18,17,27,22.50
2012,01,18,17,28,22.50
2012,01,18,17,29,27.40
2012,01,18,17,30,19.30
2012,01,18,17,31,16.10
2012,01,18,17,32,19.30
2012,01,18,17,33,24.20
2012,01,18,17,34,24.20
2012,01,18,17,35,17.70
2012,01,18,17,36,22.50
2012,01,18,17,37,24.20